[[{"header":{"parameterUnit":"m.s-1","parameterCategory":1,"la1":30.2991,"la2":30.254,"lo1":-89.0895,"lo2":-89.0444,"dy":0.0017,"dx":0.0017,"nx":28,"ny":28,"refTime":"2024-05-18T09:00:00:Z","depth":0,"parameterNumber":2,"parameterNumberName":"U-component_of_WINDS"},"data":[0,0,0,0,0,0,0,0,0,0,0,0,0,0,0,0,0,0,0,0,0,0,0,0,0,0,0,0,0,0,0,0,0,0,0,0,0,0,0,0,0,0,0,0,0,0,0,0,0,0,0,0,0,0,0,0,0,0,3.6465,3.6466,0,3.6582,3.6583,3.6584,3.6536,3.6534,3.6531,3.6528,3.6651,3.6657,3.6663,0,0,0,0,0,0,0,0,0,0,0,0,0,3.6203,3.6208,3.6465,3.6466,3.6468,3.6582,3.6583,3.6585,3.6537,3.6533,3.653,3.6527,3.6649,3.6656,3.6663,0,0,0,0,0,0,0,0,0,0,0,0,0,3.6318,3.621,3.6465,3.6458,3.6458,3.6581,3.6583,3.6585,3.6538,3.6533,3.6529,3.6525,3.6647,3.6656,3.6664,3.6802,0,0,3.6691,3.6695,0,0,0,0,0,0,0,0,3.6312,3.6328,3.6457,3.6458,3.6459,3.654,3.6536,3.6658,3.6539,3.6508,3.6528,3.6523,3.6618,3.6629,3.666,3.6808,3.6813,3.6692,3.6697,3.6701,3.6704,0,0,0,0,0,0,0,3.6304,3.6323,3.6511,3.6459,3.646,3.6449,3.6461,3.6559,3.6585,3.651,3.6507,3.6521,3.6618,3.6652,3.6663,3.6815,3.6692,3.67,3.6705,3.6708,3.708,3.7085,0,0,0,0,0,0,3.6295,3.6316,3.6508,3.6515,3.6373,3.6457,3.6471,3.6518,3.6584,3.6589,3.6524,3.6518,3.6639,3.6652,3.6667,3.683,3.6701,3.6709,3.6714,3.7076,3.7081,3.7086,0,0,0,0,0,0,3.629,3.6313,3.6503,3.6415,3.6438,3.6466,3.6521,3.6523,3.6557,3.6595,3.6599,3.6554,3.6636,3.6654,3.6768,3.6834,3.6713,3.6721,3.707,3.7077,3.7084,3.716,0,0,0,0,0,0,3.6282,3.6311,3.6363,3.6416,3.6443,3.6602,3.6525,3.6528,3.6572,3.6565,3.6624,3.6629,3.6634,3.6755,3.6777,3.6844,3.6728,3.7065,3.7074,3.7082,3.7152,3.7168,3.7183,0,0,0,0,0,3.6273,3.6381,3.6366,3.6389,3.6508,3.6606,3.6621,3.6623,3.6577,3.663,3.6654,3.6628,3.6824,3.6767,3.6791,3.6862,3.706,3.7071,3.7081,3.7144,3.7165,3.7183,0,0,0,0,0,0,3.6337,3.6388,3.6372,3.65,3.6549,3.6597,3.6664,3.6645,3.6709,3.67,3.6701,3.6715,3.6832,3.6859,3.6795,3.6998,3.6935,3.6951,3.6975,3.6995,3.7011,3.7,3.6736,0,0,0,0,0,3.6365,3.6439,3.6481,3.659,3.6615,3.6635,3.6678,3.6675,3.6726,3.6747,3.6779,3.683,3.6903,3.6951,3.7021,3.7156,3.7167,3.7217,3.7232,3.7245,3.7258,3.7329,3.7351,3.712,3.712,3.712,0,0,3.6426,3.6463,3.6509,3.6603,3.664,3.6717,3.6653,3.6737,3.6794,3.676,3.6868,3.6894,3.6951,3.7076,3.7132,3.7102,3.7324,3.7258,3.7268,3.7274,3.7342,3.7364,3.7383,3.7127,3.7126,3.7125,0,0,3.6573,3.661,3.6703,3.6742,3.6799,3.6812,3.6834,3.6886,3.6901,3.701,3.6985,3.7054,3.718,3.7221,3.7259,3.7422,3.7399,3.7445,3.7526,3.7596,3.7614,3.763,3.7685,3.7705,3.7458,3.7458,3.7459,0,3.6641,3.6754,3.6754,3.684,3.6881,3.6853,3.6947,3.6985,3.7063,3.7092,3.7057,3.7213,3.7251,3.7383,3.7422,3.7455,3.748,3.7437,3.7611,3.7627,3.7642,3.7695,3.7716,3.7463,3.7463,3.7462,3.7462,0,3.6833,3.6912,3.6981,3.7054,3.7104,3.7194,3.7208,3.7259,3.7252,3.7269,3.7379,3.7423,3.7499,3.7531,3.7527,3.7663,3.7642,3.761,3.7546,3.7669,3.7718,3.7739,3.747,3.7469,3.7467,3.7466,0,0,3.7022,3.7094,3.7119,3.7151,3.7212,3.7273,3.7362,3.7436,3.7478,3.7533,3.7606,3.7714,3.7683,3.7726,3.7726,3.7787,3.791,3.7747,3.7748,3.7773,3.8061,3.8082,3.8106,3.7897,3.7901,3.7904,3.8055,0,3.7172,3.7325,3.7328,3.7469,3.7541,3.7516,3.7593,3.7639,3.7657,3.7722,3.7743,3.7817,3.7773,3.7798,3.7858,3.7883,3.7968,3.7872,3.7964,3.7967,3.7947,3.8132,3.8156,3.8295,3.8074,3.8078,3.808,0,3.7367,3.7426,3.7573,3.7622,3.7652,3.7721,3.7788,3.7851,3.7902,3.7911,3.7959,3.7949,3.804,3.7975,3.8099,3.8034,3.8073,3.8091,3.8096,3.8102,3.8029,3.814,3.834,3.836,3.8111,3.8109,3.8107,0,3.7486,3.7603,3.7705,3.7734,3.7794,3.7843,3.7871,3.7918,3.7962,3.8021,3.8049,3.8119,3.8157,3.8212,3.8221,3.8174,3.8345,3.8282,3.8354,3.8353,3.8388,3.8385,3.8594,3.8419,3.8418,3.8418,3.8418,0,3.7651,3.7741,3.7759,3.7822,3.7922,3.7926,3.8025,3.8049,3.8092,3.8159,3.8144,3.8207,3.8217,3.8284,3.8293,3.8392,3.8411,3.842,3.842,3.8419,3.8418,3.8442,3.8431,3.8424,3.8422,3.8421,3.842,0,3.7799,3.7815,3.7924,3.7973,3.7987,3.8058,3.81,3.816,3.8177,3.8262,3.8282,3.8309,3.8386,3.8402,3.8494,3.85,3.8618,3.8611,3.8599,3.8598,3.8667,3.8659,3.8896,3.8926,3.8734,3.8736,3.8738,0,3.7902,3.797,3.8025,3.8068,3.8098,3.8168,3.8212,3.8219,3.8265,3.8329,3.8381,3.8456,3.8516,3.864,3.8668,3.8738,3.8731,3.8809,3.8741,3.8737,3.8728,3.8722,3.8728,3.8821,3.8823,3.8825,3.8826,0,3.8081,3.8085,3.8148,3.8214,3.8266,3.8319,3.8369,3.8406,3.8419,3.8472,3.855,3.8596,3.8689,3.8763,3.8833,3.8862,3.8846,3.8848,3.8867,3.8865,3.8854,3.8857,3.8631,3.8841,3.884,3.8839,3.8838,3.8837,3.8207,3.8265,3.8312,3.8383,3.8421,3.8468,3.8526,3.855,3.8615,3.8689,3.8691,3.8775,3.8825,3.8916,3.895,3.9016,3.8991,3.9021,3.9028,3.9034,3.9038,3.8846,3.903,3.9029,3.9029,3.9028,3.9028,0,3.8381,3.841,3.8476,3.8545,3.8601,3.8581,3.8635,3.8683,3.8757,3.8804,3.8863,3.8952,3.9024,3.9058,3.9129,3.9175,3.9169,3.9193,3.9188,3.9194,3.9058,3.9032,3.9196,3.9196,3.9196,3.9196,3.9196,3.9196,3.8478,3.8576,3.8586,3.8702,3.8731,3.8812,3.8845,3.8888,3.8925,3.9024,3.9083,3.9105,3.9147,3.9221,3.9285,3.9294,3.9319,3.9346,3.935,3.9222,3.9204,3.9188,3.9163,3.9352,3.9353,3.948,3.9482,3.9483]},{"header":{"parameterUnit":"m.s-1","parameterCategory":1,"la1":30.2991,"la2":30.254,"lo1":-89.0895,"lo2":-89.0444,"dy":0.0017,"dx":0.0017,"nx":28,"ny":28,"refTime":"2024-05-18T09:00:00:Z","depth":0,"parameterNumber":3,"parameterNumberName":"V-component_of_WINDS"},"data":[0,0,0,0,0,0,0,0,0,0,0,0,0,0,0,0,0,0,0,0,0,0,0,0,0,0,0,0,0,0,0,0,0,0,0,0,0,0,0,0,0,0,0,0,0,0,0,0,0,0,0,0,0,0,0,0,0,0,1.7312,1.7313,0,1.7372,1.7373,1.7374,1.7346,1.7345,1.7343,1.7342,1.7402,1.7404,1.7407,0,0,0,0,0,0,0,0,0,0,0,0,0,1.7173,1.7175,1.7312,1.7313,1.7314,1.7372,1.7373,1.7374,1.7347,1.7345,1.7343,1.7341,1.7401,1.7404,1.7408,0,0,0,0,0,0,0,0,0,0,0,0,0,1.7233,1.7176,1.7312,1.7307,1.7308,1.7372,1.7373,1.7374,1.7347,1.7345,1.7343,1.734,1.7399,1.7404,1.7408,1.748,0,0,1.7422,1.7424,0,0,0,0,0,0,0,0,1.723,1.7238,1.7307,1.7308,1.7308,1.735,1.7345,1.741,1.7348,1.7332,1.7342,1.7339,1.7386,1.7391,1.7407,1.7483,1.7486,1.7422,1.7425,1.7427,1.7428,0,0,0,0,0,0,0,1.7225,1.7235,1.7336,1.7308,1.7309,1.7302,1.7308,1.7358,1.7371,1.7333,1.7331,1.7339,1.7386,1.7403,1.7409,1.7487,1.7422,1.7426,1.7429,1.7431,1.7624,1.7626,0,0,0,0,0,0,1.7222,1.7232,1.7334,1.7338,1.7263,1.7306,1.7313,1.7339,1.737,1.7373,1.7341,1.7337,1.7397,1.7403,1.7411,1.7497,1.7427,1.7431,1.7434,1.7622,1.7625,1.7627,0,0,0,0,0,0,1.7219,1.7231,1.7332,1.7284,1.7297,1.7311,1.734,1.7341,1.7358,1.7376,1.7378,1.7356,1.7395,1.7404,1.7463,1.7499,1.7433,1.7437,1.7619,1.7623,1.7626,1.7671,0,0,0,0,0,0,1.7215,1.723,1.7258,1.7285,1.7299,1.7384,1.7342,1.7344,1.7366,1.7363,1.7391,1.7394,1.7394,1.7457,1.7468,1.7504,1.7441,1.7616,1.762,1.7625,1.7667,1.7676,1.7684,0,0,0,0,0,1.721,1.7268,1.726,1.7272,1.7335,1.7386,1.7394,1.7394,1.7369,1.7397,1.7409,1.7393,1.7493,1.7463,1.7475,1.7513,1.7613,1.7619,1.7624,1.7663,1.7674,1.7684,0,0,0,0,0,0,1.7245,1.7272,1.7263,1.7332,1.7357,1.7382,1.7417,1.7406,1.7439,1.7434,1.7432,1.7438,1.75,1.7512,1.7478,1.7585,1.7549,1.7558,1.7574,1.7586,1.7594,1.759,1.7444,0,0,0,0,0,1.726,1.73,1.7322,1.738,1.7394,1.7403,1.7426,1.7423,1.7449,1.746,1.7475,1.75,1.7537,1.7562,1.7597,1.7668,1.7674,1.77,1.7709,1.7716,1.7723,1.7762,1.7774,1.7646,1.7645,1.7645,0,0,1.7293,1.7313,1.7338,1.7388,1.7407,1.7448,1.7413,1.7457,1.7488,1.7466,1.7523,1.7535,1.7563,1.7628,1.7658,1.7641,1.776,1.7723,1.7729,1.7732,1.7769,1.7781,1.7791,1.7649,1.7649,1.7648,0,0,1.7374,1.7393,1.7444,1.7465,1.7494,1.75,1.7513,1.7539,1.7546,1.7603,1.7588,1.7623,1.7688,1.7708,1.7727,1.7815,1.7802,1.7826,1.7872,1.791,1.792,1.7929,1.796,1.7972,1.7833,1.7834,1.7834,0,1.7411,1.7473,1.7472,1.7518,1.754,1.7523,1.7575,1.7594,1.7634,1.7649,1.7629,1.7709,1.7727,1.7796,1.7818,1.7834,1.7847,1.7824,1.7918,1.7927,1.7936,1.7966,1.7978,1.7836,1.7836,1.7836,1.7835,0,1.7517,1.756,1.7598,1.7637,1.7663,1.7712,1.7718,1.7744,1.7739,1.7747,1.7805,1.7825,1.7864,1.788,1.7876,1.795,1.7938,1.7918,1.7883,1.7951,1.7979,1.7991,1.784,1.7839,1.7839,1.7838,0,0,1.7623,1.766,1.7674,1.7692,1.7723,1.7756,1.7803,1.7842,1.7865,1.7892,1.7932,1.7986,1.7968,1.799,1.7987,1.802,1.8088,1.7996,1.7997,1.8013,1.8171,1.8186,1.8199,1.8079,1.8081,1.8083,1.8168,0,1.7706,1.779,1.779,1.7868,1.7907,1.7891,1.7932,1.7955,1.7964,1.7998,1.8006,1.8045,1.8019,1.8031,1.8063,1.8073,1.812,1.8067,1.8116,1.8118,1.811,1.8214,1.823,1.831,1.8179,1.8181,1.8183,0,1.7815,1.7847,1.7928,1.7954,1.797,1.8008,1.8043,1.8076,1.8101,1.8105,1.8129,1.8121,1.8169,1.8131,1.8197,1.8161,1.818,1.8188,1.8191,1.8196,1.8155,1.8222,1.8335,1.8347,1.82,1.8199,1.8197,0,1.7884,1.7947,1.8004,1.8019,1.805,1.8077,1.8091,1.8114,1.8138,1.8168,1.8183,1.8218,1.8238,1.8265,1.8266,1.8239,1.8332,1.8295,1.8336,1.8336,1.8357,1.8356,1.8475,1.8369,1.8369,1.8369,1.8368,0,1.7978,1.8028,1.8035,1.8071,1.8126,1.8125,1.8181,1.8192,1.8213,1.825,1.8237,1.8272,1.8272,1.8306,1.8308,1.8362,1.837,1.8374,1.8374,1.8376,1.8375,1.8389,1.8384,1.8372,1.8371,1.8371,1.837,0,1.8065,1.8071,1.8132,1.8157,1.8164,1.8204,1.8225,1.8258,1.8265,1.8311,1.8322,1.8332,1.8373,1.8377,1.8424,1.8425,1.849,1.8483,1.8481,1.8481,1.8522,1.8518,1.8654,1.8672,1.8554,1.8555,1.8556,0,1.8124,1.8163,1.8191,1.8215,1.8231,1.827,1.8293,1.8293,1.8318,1.835,1.838,1.8419,1.845,1.8515,1.8527,1.8562,1.8557,1.8602,1.8562,1.8562,1.8558,1.8556,1.856,1.861,1.8611,1.8612,1.8613,0,1.8229,1.8231,1.8266,1.8302,1.8331,1.8359,1.8386,1.8406,1.8409,1.8438,1.8479,1.8503,1.8551,1.859,1.8625,1.8638,1.8627,1.8626,1.8637,1.864,1.8637,1.8639,1.8503,1.8623,1.8622,1.8621,1.8621,1.862,1.8305,1.8338,1.8364,1.8403,1.8423,1.8448,1.848,1.8491,1.8526,1.8566,1.8563,1.8609,1.8633,1.8679,1.8695,1.873,1.8715,1.8731,1.8736,1.874,1.8744,1.8631,1.8736,1.8736,1.8736,1.8736,1.8735,0,1.8409,1.8425,1.8461,1.8499,1.853,1.8516,1.8545,1.8571,1.8612,1.8636,1.8667,1.8714,1.8752,1.8766,1.8803,1.8828,1.8824,1.8838,1.8836,1.8839,1.8756,1.8742,1.8841,1.8841,1.8841,1.8841,1.8841,1.8841,1.8467,1.8524,1.8528,1.8594,1.8609,1.8654,1.8671,1.8694,1.8713,1.8767,1.8799,1.8808,1.8828,1.8866,1.8899,1.8902,1.8917,1.8933,1.8934,1.8856,1.8845,1.8835,1.8823,1.8936,1.8936,1.9015,1.9016,1.9016]}]]